Location: Cucq
(50.4773°N, 1.6202°E)
Time: 03:36:20
(UTC+00:00)

SJ 16-02 - Pass Details

Date: 07 August 2020
Orbit: 607 x 616 km, 75.0° (Epoch: 25 September)

Event Time Altitude Azimuth Distance (km) Brightness Sun altitude
Exits shadow 03:02:12 18° 227° (SW) 1,516 2.7 -12.1°
Maximum altitude 03:05:16 50° 297° (WNW) 788 1.8 -11.8°
Drops below altitude 10° 03:09:35 10° 14° (NNE) 1,982 4.9 -11.3°
Sets 03:11:54 0° 20° (NNE) 2,889 6.0 -11.0°
